GW3882 Weather Reports


Display with metric or nautical units.
time (UTC)temp
F
wind
direction
speed
MPH
gust
MPH
rain 1hr
in
rain 24hr
in
rain mn
in
humidity
%
barometer
mb
20260504081506 46 355 0.0 0.0 0.00 0.00 0.00 60 1014.1
20260504044528 54 49 0.0 0.0 0.00 0.00 0.00 42 1009.8
20260504043042 54 13 0.0 0.0 0.00 0.00 0.00 42 1009.3
20260504041535 55 19 0.0 0.0 0.00 0.00 0.00 41 1009.0
20260504040027 56 355 0.0 0.0 0.00 0.00 0.00 39 1008.6
20260504034527 57 340 0.0 0.0 0.00 0.00 0.00 39 1008.1
20260504033029 57 38 0.0 0.0 0.00 0.00 0.00 38 1008.1
20260504031527 58 36 0.0 0.0 0.00 0.00 0.00 38 1008.0
20260504030027 59 38 0.0 0.0 0.00 0.00 0.00 35 1007.8
20260504024524 60 37 0.0 0.0 0.00 0.00 0.00 32 1007.6
20260504023027 62 5 0.0 0.0 0.00 0.00 0.00 29 1007.5
20260504021524 63 355 0.0 0.0 0.00 0.00 0.00 26 1007.4
20260504020025 65 11 0.0 0.0 0.00 0.00 0.00 24 1007.5
20260504014531 67 303 0.0 0.0 0.00 0.00 0.00 23 1007.5
20260504013022 69 52 0.0 0.0 0.00 0.00 0.00 23 1007.6
20260504011523 70 338 0.0 0.0 0.00 0.00 0.00 22 1007.5
20260504010018 70 323 0.0 0.0 0.00 0.00 0.00 21 1007.6
20260504004521 71 347 0.0 0.0 0.00 0.00 0.00 20 1007.6
20260504003015 71 326 0.0 0.0 0.00 0.00 0.00 21 1007.8
20260504001515 72 325 0.0 0.0 0.00 0.00 0.00 21 1007.8
20260504000013 72 282 0.0 0.0 0.00 0.00 0.00 20 1008.0
20260503234516 72 316 0.0 0.0 0.00 0.00 0.00 20 1007.9
20260503233012 72 312 0.0 0.0 0.00 0.00 0.00 20 1007.9
20260503231516 72 289 0.0 0.0 0.00 0.00 0.00 20 1008.0
20260503230012 72 346 0.0 0.0 0.00 0.00 0.00 22 1008.1
20260503224511 73 299 0.0 0.0 0.00 0.00 0.00 20 1008.2
20260503223008 72 329 0.0 0.0 0.00 0.00 0.00 20 1008.4
20260503221505 72 259 0.0 0.0 0.00 0.00 0.00 21 1008.5
20260503220003 73 277 0.0 0.0 0.00 0.00 0.00 21 1008.6
20260503214501 72 324 0.0 0.0 0.00 0.00 0.00 21 1008.7
20260503213100 71 302 0.0 0.0 0.00 0.00 0.00 21 1008.8
20260503211558 73 264 0.0 0.0 0.00 0.00 0.00 22 1009.0
20260503210057 72 309 0.0 0.0 0.00 0.00 0.00 21 1009.2
20260503204554 70 295 0.0 0.0 0.00 0.00 0.00 21 1009.3
20260503203056 70 305 0.0 0.0 0.00 0.00 0.00 21 1009.6
20260503201549 71 313 0.0 0.0 0.00 0.00 0.00 21 1010.0
20260503200047 72 262 0.0 0.0 0.00 0.00 0.00 21 1010.0
20260503194545 71 303 0.0 0.0 0.00 0.00 0.00 21 1010.1
20260503193046 69 273 0.0 0.0 0.00 0.00 0.00 22 1010.2
20260503191541 70 294 0.0 0.0 0.00 0.00 0.00 22 1010.5
20260503190045 69 288 0.0 0.0 0.00 0.00 0.00 22 1010.5
20260503184538 71 290 0.0 0.0 0.00 0.00 0.00 22 1010.7
20260503183034 70 259 0.0 0.0 0.00 0.00 0.00 23 1010.9
20260503181531 69 309 0.0 0.0 0.00 0.00 0.00 24 1011.2
20260503180042 68 298 0.0 0.0 0.00 0.00 0.00 25 1011.5
20260503174531 69 273 0.0 0.0 0.00 0.00 0.00 27 1011.6
20260503173026 67 292 0.0 0.0 0.00 0.00 0.00 26 1011.9
20260503171527 68 265 0.0 0.0 0.00 0.00 0.00 26 1011.8